User: anonymous   Login
Location: Unspecified
(0.0000°N, 0.0000°E)
Time: 09:18:26
(UTC+00:00)
Language:

Safir 2 - Orbit

View from above orbital plane
View from above orbital plane
View from above satellite
View from above satellite

Ground track
Ground track

The orbit data is extracted from the following two-line orbital elements,

1 25399U 98043F   17086.83970096 +.00000005 +00000-0 +20660-4 0  9999
2 25399 098.5682 032.8714 0002445 129.3240 230.8156 14.24576767972450
Epoch (UTC): 27 March 2017 20:09:10
Eccentricity: 0.0002445
inclination: 98.5682°
perigee height: 808 km
apogee height: 811 km
right ascension of ascending node: 32.8714°
argument of perigee: 129.3240°
revolutions per day: 14.24576767
mean anomaly at epoch: 230.8156°
orbit number at epoch: 97245

The dashed part of the orbit path shows where the satellite is in the earth's shadow,  

DLR